Vertical_Velocity
0 -2 0 -0 0 0 -1 0 0 -2 -1 -3 -6 4 -11 -1 -3 -2 1 -0 -1 1 0 1 -1 -1 -1 1 2 3 3 2 0 0 -1 2 -1 1 2 1 -1 1 -2 1
-1 -0 -2 1 -0 -1 -1 -0 -1 -4 -2 -1 -5 5 -0 -1 1 -3 -3 -2 -1 1 1 -0 -1 0 1 1 2 2 1 1 -0 -0 -1 -1 -2 -1 -2 1 0 1 -0 -1
-1 1 -1 1 -2 -1 -1 -0 -2 -2 -3 -4 0 4 -1 -0 -1 -0 -4 -2 -2 -2 1 1 1 0 1 1 1 -0 -0 -0 2 -0 -1 -1 -1 -2 -2 -1 0 -1 -1 -1
-2 -0 -1 -1 -1 -0 -3 -1 -1 -1 -4 -5 -2 -10 5 4 2 -3 -2 -0 -1 -2 0 1 1 1 0 2 1 -2 -1 -1 -1 -1 0 -0 -1 -2 1 -0 -0 -0 2 0
3 1 0 -1 -1 -1 -1 -2 0 -1 -3 -4 4 -11 2 1 1 -4 -4 -1 -3 -2 0 1 2 -0 -0 -0 -1 -2 -2 -2 -3 -3 -2 -1 1 1 1 1 -1 -1 0 -1
-1 -1 -0 -2 -2 -1 1 -0 -1 -1 -2 -5 0 -4 5 -2 0 -1 1 -0 -4 -2 -2 0 0 0 0 -1 -0 -0 1 -0 -1 -0 2 2 -0 2 0 0 -0 -0 0 1
-2 -2 -3 -3 -1 -1 1 0 -2 -5 1 -2 -0 -4 0 0 0 -2 -1 -2 -0 -0 -2 0 0 -2 -2 1 1 0 -1 -0 1 0 -1 -1 1 2 -0 -2 1 -1 -2 -1
-1 -2 -0 1 -0 -0 0 -0 -0 -5 1 -0 -1 -6 3 2 1 -3 -2 2 2 -1 2 1 1 2 1 1 -1 -3 -2 -1 -0 -0 -2 1 2 0 -1 -0 -2 -2 -1 -1
-1 -0 -1 -1 -0 0 3 0 1 -3 -2 -3 -3 1 2 -0 -1 0 -1 -1 2 3 2 2 1 -1 -0 -1 0 0 -1 -2 1 0 0 -1 -0 -0 1 -1 -2 2 -1 -0
1 -1 -1 -1 -0 0 -0 -1 -0 1 -4 -0 2 2 -1 -1 -0 -0 -0 1 -1 -1 -0 1 -0 -0 -0 0 0 0 -0 1 1 0 0 -1 1 0 1 2 -0 -0 1 0
-2 -1 -1 -2 -1 -2 0 1 -0 -1 -1 -3 -1 2 4 0 -1 -0 -2 -0 -0 -0 -1 -1 -2 -2 -1 -0 -0 -1 -1 -1 -1 -1 -1 0 -1 -1 -2 -1 -1 1 -1 1
-0 0 -1 -1 -0 -1 -1 0 -0 -1 2 -1 -2 2 3 1 0 -1 -0 0 -0 0 -2 -2 1 2 0 1 0 -0 -1 0 2 2 1 0 -1 -1 -1 -2 -2 -1 -1 -3
1 3 0 1 0 1 0 1 1 -0 -2 4 -4 7 -2 1 -0 -1 2 3 3 1 -0 1 -0 -1 0 0 0 -0 0 -0 -0 -1 -1 -2 -2 -2 -0 -1 -1 -2 0 -2
-0 2 -1 2 -1 -1 1 -1 -0 -3 -4 5 -4 3 -3 -2 -1 1 3 2 -1 1 -0 -1 -0 1 -1 -2 -1 -1 -2 -0 -1 -0 0 -0 -2 -2 -0 -1 -1 -1 0 1
-0 3 0 0 -1 -0 2 4 -1 0 3 -5 9 -7 12 -8 -5 1 2 0 0 1 0 -0 0 2 1 -1 -0 -1 -0 -0 0 -0 -0 -1 -1 -1 -1 -0 1 0 -1 -0
-2 -3 -1 7 -4 -2 -0 5 1 -3 -1 0 -6 7 -16 -1 2 -1 -0 -0 -1 -0 0 -1 -1 1 2 2 0 0 0 -1 -1 -1 -1 -0 -2 -1 -2 -1 0 1 1 -0
1 -1 -3 3 5 -4 -1 1 0 -1 -1 -3 1 -0 -1 3 3 1 0 -3 -0 1 1 1 1 0 1 1 1 -2 0 1 0 1 0 2 1 -1 -1 -1 -0 1 -0 1
1 -1 -4 2 -4 2 0 -0 -1 2 2 -1 1 -3 -0 0 -1 -1 1 0 0 0 -1 -1 0 0 -1 1 0 -0 1 -1 -2 -4 -5 -4 -1 -3 -3 -2 -2 -1 -1 -2
-0 -3 -4 -6 -0 -1 14 -1 -3 -2 7 1 3 -0 0 2 2 2 1 -0 -0 1 2 2 0 -1 -1 -0 -1 -1 -2 -1 0 0 -1 -2 -1 -1 -2 -2 -2 -3 1 -2
-0 -1 -1 -2 -10 -7 5 -2 2 2 6 0 -2 -1 -0 2 4 -1 -2 0 -2 0 -0 0 -2 -3 0 0 -0 -2 -2 -1 -1 -2 -1 -3 -2 -1 0 -1 -1 -2 -4 -1
1 -2 -0 -1 -10 0 6 -1 -5 -4 -2 -0 2 2 0 1 -5 3 1 2 2 1 -1 -2 -0 0 -4 -4 -1 -3 -3 1 1 1 0 -2 -4 -1 -3 2 -3 0 -0 -0
-4 -8 2 -2 -4 -5 3 2 -1 -2 -6 -2 -1 -2 1 -1 2 2 1 1 -1 -2 -2 -4 -3 1 -1 -5 -3 -0 -1 -0 0 2 2 1 -0 -4 -3 -2 -2 -3 -5 -1
-8 5 1 -1 1 -3 -4 -3 -1 -3 -3 -4 -0 3 -2 2 4 -0 1 -0 0 -2 2 -3 -4 -1 2 -4 -10 1 -2 -6 -2 -4 -3 -2 -1 -2 -3 -2 -2 2 -4 -5
6 5 -9 -8 19 2 -1 -1 -7 -6 -1 1 -2 0 1 -1 3 3 -1 -4 -1 -1 -2 -5 -4 -4 3 -5 -6 -10 -6 -8 -5 -3 -0 -1 -3 -0 -1 -1 -2 -2 0 -5
14 10 2 -2 10 -14 -2 1 -5 -4 -2 -1 5 -2 -0 -1 1 -2 2 -7 0 -3 -2 -7 -4 -3 4 -1 1 -2 -4 -9 -0 -2 0 2 -1 -1 -1 -0 -0 -1 5 -6
8 8 -11 -10 3 -11 9 12 3 -4 1 0 -1 -1 -6 -1 -5 -4 1 -1 0 2 1 -1 -2 -4 5 3 2 7 -4 -7 -5 -4 1 0 0 3 1 -1 5 4 -6 3
Height
5804 5809 5812 5816 5819 5822 5824 5826 5826 5827 5827 5827 5826 5825 5822 5819 5817 5816 5813 5810 5806 5803 5800 5797 5793 5791 5788 5787 5786 5786 5785 5785 5784 5784 5782 5781 5780 5779 5776 5774 5773 5772 5770 5769
5804 5808 5811 5814 5817 5819 5820 5821 5822 5822 5821 5821 5819 5818 5816 5814 5811 5809 5806 5802 5799 5795 5792 5789 5786 5784 5782 5782 5781 5782 5782 5782 5781 5780 5778 5777 5775 5772 5769 5768 5768 5767 5766 5764
5803 5806 5809 5811 5813 5815 5815 5816 5816 5817 5815 5814 5812 5812 5809 5807 5804 5801 5798 5795 5793 5790 5786 5784 5782 5781 5779 5779 5779 5779 5779 5779 5777 5775 5774 5772 5769 5766 5763 5762 5762 5761 5760 5758
5800 5803 5806 5807 5808 5810 5811 5811 5810 5809 5808 5807 5806 5804 5803 5800 5797 5794 5791 5789 5787 5784 5781 5779 5778 5776 5775 5775 5776 5776 5776 5774 5772 5771 5769 5767 5764 5761 5758 5757 5756 5756 5755 5752
5798 5799 5801 5803 5804 5805 5806 5805 5804 5803 5802 5800 5800 5797 5797 5793 5790 5788 5786 5784 5781 5779 5777 5774 5773 5773 5772 5773 5773 5772 5771 5769 5768 5766 5763 5761 5758 5756 5752 5751 5750 5749 5748 5746
5794 5796 5798 5799 5799 5800 5800 5799 5798 5796 5795 5795 5793 5790 5790 5787 5785 5783 5781 5779 5777 5775 5772 5770 5770 5770 5770 5769 5768 5767 5766 5764 5762 5760 5757 5754 5752 5749 5747 5746 5745 5743 5741 5739
5791 5792 5793 5794 5795 5794 5794 5793 5792 5791 5790 5788 5786 5784 5784 5782 5779 5778 5775 5774 5774 5772 5770 5769 5768 5767 5766 5765 5763 5761 5759 5757 5755 5753 5750 5748 5745 5742 5741 5739 5738 5737 5734 5732
5787 5789 5789 5789 5789 5789 5788 5788 5786 5784 5784 5783 5780 5779 5779 5777 5775 5773 5771 5770 5770 5769 5768 5767 5765 5764 5762 5760 5757 5755 5753 5751 5748 5746 5743 5739 5737 5735 5734 5733 5731 5729 5727 5724
5783 5784 5784 5784 5784 5784 5783 5782 5781 5778 5778 5777 5776 5775 5774 5773 5772 5771 5769 5767 5766 5765 5763 5762 5760 5757 5755 5753 5751 5749 5746 5743 5740 5737 5734 5732 5730 5728 5727 5725 5723 5721 5719 5716
5779 5779 5779 5779 5779 5778 5777 5777 5776 5774 5772 5771 5771 5771 5770 5770 5768 5767 5765 5763 5761 5760 5758 5755 5753 5751 5749 5747 5744 5740 5738 5735 5732 5729 5726 5724 5722 5720 5718 5716 5714 5712 5710 5707
5774 5775 5775 5774 5773 5772 5772 5771 5770 5769 5767 5765 5766 5768 5766 5765 5763 5761 5759 5757 5755 5753 5751 5748 5745 5744 5741 5738 5735 5732 5729 5727 5724 5721 5719 5716 5713 5711 5709 5707 5704 5702 5700 5696
5769 5769 5769 5769 5769 5768 5768 5767 5765 5763 5764 5761 5760 5764 5760 5759 5757 5755 5753 5750 5748 5745 5742 5739 5737 5734 5730 5728 5725 5723 5720 5717 5715 5713 5710 5707 5705 5703 5700 5698 5695 5691 5689 5686
5765 5765 5765 5765 5766 5764 5763 5762 5761 5759 5757 5757 5754 5757 5753 5751 5748 5746 5745 5742 5740 5736 5732 5730 5727 5725 5721 5718 5716 5713 5710 5708 5706 5703 5701 5698 5695 5692 5690 5687 5684 5680 5677 5674
5761 5761 5761 5761 5760 5759 5758 5756 5755 5752 5751 5750 5749 5747 5745 5739 5738 5737 5735 5733 5730 5726 5723 5719 5717 5715 5712 5710 5707 5704 5701 5698 5696 5692 5690 5687 5684 5680 5676 5673 5670 5667 5664 5662
5756 5756 5755 5754 5752 5752 5751 5750 5746 5745 5743 5739 5742 5737 5737 5729 5728 5726 5724 5721 5719 5716 5713 5710 5706 5704 5702 5699 5695 5692 5689 5686 5683 5680 5677 5673 5670 5667 5664 5661 5658 5654 5651 5649
5750 5749 5747 5748 5743 5742 5744 5743 5737 5736 5733 5729 5727 5730 5718 5721 5716 5714 5711 5709 5707 5704 5701 5698 5695 5692 5690 5687 5684 5680 5676 5673 5670 5667 5664 5661 5657 5654 5650 5647 5643 5639 5635 5632
5742 5739 5737 5739 5734 5731 5735 5733 5727 5724 5720 5717 5714 5715 5710 5707 5703 5700 5698 5696 5693 5690 5687 5685 5681 5678 5675 5673 5670 5667 5664 5660 5656 5652 5649 5645 5642 5638 5635 5631 5627 5623 5620 5616
5732 5728 5725 5725 5723 5720 5721 5720 5716 5710 5708 5705 5704 5700 5697 5696 5693 5691 5686 5682 5680 5678 5676 5673 5670 5667 5663 5660 5657 5653 5649 5646 5642 5637 5633 5630 5626 5622 5618 5614 5610 5606 5602 5598
5724 5719 5714 5711 5711 5710 5713 5708 5704 5701 5700 5694 5691 5687 5685 5683 5681 5679 5674 5671 5668 5665 5662 5659 5656 5652 5648 5645 5642 5638 5634 5629 5625 5621 5617 5612 5608 5604 5599 5595 5591 5586 5581 5577
5714 5710 5706 5703 5698 5697 5703 5698 5693 5689 5688 5685 5681 5678 5674 5671 5669 5667 5663 5660 5657 5653 5650 5646 5642 5637 5632 5628 5624 5619 5615 5611 5607 5602 5597 5592 5587 5583 5578 5573 5569 5564 5560 5555
5702 5698 5695 5691 5685 5685 5688 5682 5679 5677 5674 5670 5668 5666 5662 5661 5657 5654 5651 5646 5642 5639 5634 5629 5625 5620 5614 5609 5605 5599 5594 5590 5586 5582 5576 5571 5566 5561 5556 5551 5546 5541 5537 5532
5694 5689 5685 5680 5676 5674 5670 5667 5664 5659 5655 5652 5650 5648 5647 5644 5641 5637 5633 5629 5625 5621 5615 5611 5606 5600 5594 5589 5585 5580 5574 5570 5564 5559 5553 5548 5543 5539 5534 5529 5524 5519 5514 5511
5679 5675 5672 5670 5666 5660 5656 5649 5642 5639 5639 5635 5633 5631 5628 5626 5623 5619 5615 5610 5606 5602 5597 5592 5587 5582 5575 5567 5563 5559 5553 5549 5545 5539 5534 5529 5523 5518 5512 5508 5504 5500 5493 5490
5663 5658 5656 5654 5651 5646 5639 5630 5625 5622 5620 5618 5615 5611 5607 5605 5602 5598 5593 5587 5585 5580 5575 5569 5564 5560 5555 5546 5542 5537 5532 5527 5523 5520 5514 5507 5502 5497 5491 5486 5480 5476 5471 5468
5647 5642 5640 5634 5630 5623 5621 5616 5611 5608 5603 5598 5594 5589 5586 5581 5577 5572 5568 5561 5560 5553 5548 5543 5539 5535 5532 5524 5519 5512 5505 5501 5498 5495 5490 5484 5478 5474 5470 5465 5459 5454 5450 5444
5628 5623 5617 5612 5608 5603 5604 5601 5594 5590 5585 5580 5576 5570 5565 5560 5554 5549 5544 5539 5534 5530 5524 5518 5513 5510 5506 5501 5496 5490 5482 5474 5472 5470 5465 5460 5455 5450 5445 5440 5438 5432 5426 5423